TimeCDT,TemperatureF,Dew PointF,Humidity,Sea Level PressureIn,VisibilityMPH,Wind Direction,Wind SpeedMPH,Gust SpeedMPH,PrecipitationIn,Events,Conditions,WindDirDegrees,DateUTC
12:51 AM,37.9,21.0,51,30.05,10.0,ENE,6.9,-,N/A,,Overcast,70,2013-03-23 05:51:00
1:36 AM,37.4,21.2,52,30.02,10.0,East,5.8,-,N/A,,Overcast,90,2013-03-23 06:36:00
1:51 AM,37.9,21.9,53,30.05,10.0,East,4.6,-,N/A,,Overcast,80,2013-03-23 06:51:00
2:45 AM,37.4,23.0,56,30.02,10.0,ESE,5.8,-,N/A,,Overcast,110,2013-03-23 07:45:00
2:51 AM,37.9,23.0,55,30.04,10.0,ESE,4.6,-,N/A,,Overcast,110,2013-03-23 07:51:00
3:51 AM,37.9,23.0,55,30.02,10.0,ENE,3.5,-,N/A,,Overcast,60,2013-03-23 08:51:00
4:51 AM,37.9,21.9,53,30.02,10.0,NE,5.8,-,N/A,,Overcast,40,2013-03-23 09:51:00
5:51 AM,37.9,21.9,53,30.03,10.0,NE,5.8,-,N/A,,Overcast,50,2013-03-23 10:51:00
6:51 AM,37.9,21.9,53,30.06,10.0,ENE,4.6,-,N/A,,Overcast,60,2013-03-23 11:51:00
7:51 AM,37.9,21.9,53,30.06,10.0,ENE,5.8,-,N/A,,Overcast,60,2013-03-23 12:51:00
8:51 AM,39.0,21.9,50,30.08,10.0,NE,5.8,-,N/A,,Overcast,50,2013-03-23 13:51:00
9:51 AM,41.0,21.2,45,30.04,10.0,ENE,10.4,-,N/A,,Overcast,70,2013-03-23 14:51:00
10:51 AM,43.0,19.0,38,30.06,10.0,East,10.4,-,N/A,,Mostly Cloudy,80,2013-03-23 15:51:00
11:51 AM,46.0,19.0,34,30.05,10.0,NE,5.8,-,N/A,,Scattered Clouds,40,2013-03-23 16:51:00
12:51 PM,48.9,21.0,33,30.02,10.0,ENE,9.2,-,N/A,,Scattered Clouds,70,2013-03-23 17:51:00
1:51 PM,51.8,24.8,35,29.98,10.0,NE,8.1,-,N/A,,Scattered Clouds,50,2013-03-23 18:51:00
2:51 PM,53.6,24.8,33,29.95,10.0,NE,11.5,17.3,N/A,,Scattered Clouds,40,2013-03-23 19:51:00
3:51 PM,53.1,26.1,35,29.92,10.0,ENE,11.5,-,N/A,,Mostly Cloudy,70,2013-03-23 20:51:00
4:51 PM,54.0,28.0,37,29.90,10.0,ENE,17.3,24.2,N/A,,Mostly Cloudy,70,2013-03-23 21:51:00
5:51 PM,53.1,28.0,38,29.88,10.0,East,12.7,-,N/A,,Mostly Cloudy,100,2013-03-23 22:51:00
6:51 PM,52.0,28.9,41,29.89,10.0,East,11.5,-,0.00,Rain,Light Rain,80,2013-03-23 23:51:00
7:51 PM,50.0,32.0,50,29.86,10.0,ENE,11.5,-,0.01,,Overcast,70,2013-03-24 00:51:00
8:51 PM,50.0,28.9,44,29.86,10.0,ENE,10.4,-,N/A,,Overcast,60,2013-03-24 01:51:00
9:51 PM,48.9,28.9,46,29.86,10.0,ENE,6.9,-,0.00,,Overcast,60,2013-03-24 02:51:00
10:51 PM,46.9,30.0,52,29.88,10.0,ENE,11.5,-,0.00,Rain,Light Rain,60,2013-03-24 03:51:00
11:51 PM,43.0,33.1,68,29.87,9.0,NE,15.0,20.7,0.00,Rain,Light Rain,40,2013-03-24 04:51:00